Simultaneous Nadir Overpasses (SNOs) Predictions

Prediction of SNOs between GOES-17 and METOP-B Satellite Orbit:

Table of predicted SNOs for the next 14.0 days since TLE Epoch: 7/11/2020
Index Date Time (GOES-17) GOES-17 Lat,Lon METOP-B Lat,Lon Distance(km) Time Diff (sec)
1 07/11/2020 06:27:07 -0.01,-137.20 0.72,-133.98 367.20 80
2 07/12/2020 18:43:18 0.01,-137.23 0.30,-138.54 148.91 80
3 07/13/2020 18:25:19 0.01,-137.24 -0.83,-133.55 421.76 80
4 07/15/2020 06:41:38 -0.01,-137.25 -0.19,-138.14 101.39 80
5 07/16/2020 06:23:38 -0.02,-137.25 0.88,-133.14 468.81 80
6 07/17/2020 18:39:49 0.02,-137.28 0.14,-137.70 48.74 80
7 07/20/2020 06:40:49 -0.01,-137.27 -0.03,-137.30 4.16 80
8 07/22/2020 18:39:01 0.00,-137.27 -0.09,-136.87 45.67 80
9 07/24/2020 06:58:00 -0.00,-137.25 -0.93,-141.46 479.79 80
